Location: 81360 Arifat, France
(43.7204°N, 2.3408°E)
Time: 03:24:05
(UTC+01:00)

Vanguard 1 - Visible Passes

Search period start: 05 December 2025 00:00
Search period end: 15 December 2025 00:00
Orbit: 650 x 3821 km, 34.2° (Epoch: 03 December)

Date Brightness Start Highest point End Pass type
(mag) Time Alt. Az. Time Alt. Az. Time Alt. Az.
05 Dec 13.6 17:29:26 10° W 17:43:47 46° SSW 18:04:34 10° SE visible
05 Dec 14.3 19:53:53 10° W 20:07:26 23° SW 20:23:01 10° S visible
06 Dec 13.8 17:49:04 10° W 18:03:13 40° SSW 18:23:07 10° SSE visible
06 Dec 14.4 20:15:35 10° WSW 20:26:34 17° SW 20:38:48 10° SSW visible
07 Dec 14.0 18:08:54 10° W 18:22:36 34° SSW 18:41:14 10° SSE visible
07 Dec 14.6 20:40:04 10° WSW 20:45:41 12° SW 20:51:36 10° SSW visible
08 Dec 14.2 18:29:02 10° W 18:41:58 27° SW 18:58:51 10° SSE visible
09 Dec 14.4 18:49:44 10° W 19:01:17 22° SW 19:15:42 10° S visible
10 Dec 14.6 19:11:28 10° WSW 19:20:35 16° SW 19:31:18 10° SSW visible
11 Dec 14.8 19:37:32 10° SW 19:39:53 10° SW 19:42:19 10° SW visible
12 Dec 14.4 17:25:45 10° WSW 17:36:17 25° SSW 17:50:53 10° SSE visible
13 Dec 14.6 17:46:31 10° WSW 17:55:41 19° SW 18:07:36 10° S visible
14 Dec 14.7 18:08:41 10° WSW 18:15:06 13° SW 18:22:39 10° SSW visible
